Regional Weather Roundup
Issued by NWS

Home | Current Version | Previous Version | Graphics & Text | Print | Product List | Glossary On
Versions: 1 2 3 4 5 6 7 8 9 10 11 12 13 14 15 16 17 18 19 20 21 22 23 24 25 26 27 28 29 30 31 32 33 34 35 36 37 38 39 40 41 42 43 44 45 46 47 48 49 50
000
ASUS45 KSLC 021910
RWRUT
UTAH REGIONAL WEATHER ROUNDUP
NATIONAL WEATHER SERVICE SALT LAKE CITY UT
100 PM MDT SUN AUG 02 2015

UTZ001>011-023>025-022000-

NORTHERN UTAH

CITY           SKY/WX    TMP DP  RH WIND       PRES   REMARKS
BRIGHAM CITY   MOSUNNY   87  31  13 SW6       30.00F
HILL AFB       PTSUNNY   87  42  20 VRB5      30.03F
LOGAN          SUNNY     85  40  20 SW5       30.01F
OGDEN          PTSUNNY   89  39  17 SE5       30.00F
PROVO AIRPORT  MOSUNNY   82  52  34 W7        30.01F
SALT LAKE CITY PTSUNNY   90  43  19 CALM      29.97F
VERNAL         MOSUNNY   85  44  23 S8        30.09F
WENDOVER       PTSUNNY   91  39  16 SE7       30.00F
HEBER CITY     MOSUNNY   82  43  24 CALM      30.07F
WEST JORDAN    SUNNY     88  43  20 CALM      30.02F

$$

UTZ012>022-026-027-022000-

SOUTHERN/CENTRAL UTAH

CITY           SKY/WX    TMP DP  RH WIND       PRES   REMARKS
BLANDING       CLOUDY    70  59  68 NE3       30.26F
BRYCE CANYON   LGT RAIN  59  54  83 S7        30.32F
CEDAR CITY     CLOUDY    77  44  30 W10       30.15F
DELTA          PTSUNNY   87  40  18 S5        30.03F
HANKSVILLE     CLOUDY    64  61  88 E18G24    30.12R
MILFORD        CLOUDY    80  47  31 S13       30.09S
MOAB/CYNLANDS  CLOUDY    75  56  51 S16       30.09F
PRICE          PTSUNNY   85  50  29 SE14      30.14F
ST GEORGE      PTCLDY    84  55  37 W3        30.01F
KANAB          PTSUNNY   81  55  41 E6        30.18F

$$

REGIONAL REPORTS     COLORADO/ARIZONA

CITY           SKY/WX    TMP DP  RH WIND       PRES   REMARKS
CRAIG, CO      MOSUNNY   87  47  24 N8        30.16F
GRAND JUNCTION CLOUDY    76  53  44 S9        30.12F
RIFLE          CLOUDY    78  49  35 W9        30.15F
MONTROSE       LGT RAIN  70  55  59 SE7       30.22S
CORTEZ         SUNNY     73  60  63 S3        30.19F
PAGE, AZ       PTSUNNY   72  64  76 VRB5      30.11F
GRAND CANYON   PTSUNNY   76  50  40 W12G20    30.22F
KINGMAN        SUNNY     94  47  20 W14G23    30.02F HX  90
FLAGSTAFF      PTSUNNY   75  52  44 SW18G25   30.26F

$$

REGIONAL REPORTS    NEVADA/IDAHO/WYOMING

CITY           SKY/WX    TMP DP  RH WIND       PRES   REMARKS
LAS VEGAS, NV  MOSUNNY   95  52  23 VRB3      29.89F HX  92
ELY            PTSUNNY   82  39  21 VRB3      30.16F
ELKO           CLOUDY    86  42  21 VRB7      30.09F
POCATELLO, ID  MOSUNNY   91  42  18 N8        30.03F
BURLEY         PTSUNNY   88  41  19 VRB5      30.00F
EVANSTON, WY   MOSUNNY   84  29  13 NE8       30.21F
ROCK SPRINGS   SUNNY     82  36  19 VRB3      30.19F
KEMMERER       SUNNY     84  23  10 E8        30.24F

$$



USA.gov is the U.S. government's official web portal to all federal, state and local government web resources and services.